User: anonymous   Login
Location: Arcueil
(48.7999°N, 2.3326°E)
Time: 00:25:14
(UTC+00:00)
Language:

DELTA 2 DEB (DPAF) - Orbit

View from above orbital plane
View from above orbital plane
View from above satellite
View from above satellite

Ground track
Ground track

The orbit data is extracted from the following two-line orbital elements,

1 29110U 06016D   23156.55083343  .00005980  00000-0  75929-3 0  9991
2 29110  98.4326 341.3363 0003915  42.3949  11.8621 14.82071783917680
Epoch (UTC): 05 June 2023 13:13:12
Eccentricity: 0.0003915
inclination: 98.4326°
perigee height: 620 km
apogee height: 625 km
right ascension of ascending node: 341.3363°
argument of perigee: 42.3949°
revolutions per day: 14.82071783
mean anomaly at epoch: 11.8621°
orbit number at epoch: 91768

The dashed part of the orbit path shows where the satellite is in the earth's shadow,  

DLR